Waarnemingen

Advertentie
Mijn weer
Antwerpen, België (6450): temperatuur & dauwpunt: 19.04.2019 16:00:00 - 25.04.2019 16:00:00 (CEST)Antwerpen, België (6450): windsnelheid & windstoten: 19.04.2019 16:00:00 - 25.04.2019 16:00:00 (CEST)Antwerpen, België (6450): windrichting: 19.04.2019 16:00:00 - 25.04.2019 16:00:00 (CEST)Antwerpen, België (6450): luchtdruk: 19.04.2019 16:00:00 - 25.04.2019 16:00:00 (CEST)Antwerpen, België (6450): zicht: 19.04.2019 16:00:00 - 25.04.2019 16:00:00 (CEST)
Datum & Tijd tt [°C] td [°C] ff [km/u] ff [kn] fx [km/u] fx [kn] dd ppp [hPa] vv [km]
25.04.2019 16:00:00 13,2 10,8 21 11 36 19 Z 1005,7 10
25.04.2019 15:00:00 13,0 11,2 18 10 32 18 Z 1005,2 7
25.04.2019 14:00:00 14,3 10,6 18 10 - - ZZW 1004,4 8
25.04.2019 13:00:00 16,4 7,7 21 11 40 21 ZZO 1003,9 10
25.04.2019 12:00:00 15,7 7,8 26 14 40 21 ZZO 1003,9 10
25.04.2019 11:00:00 14,5 7,6 22 12 - - ZZO 1003,8 10
25.04.2019 10:00:00 12,2 7,0 16 9 22 12 ZO 1004,2 10
25.04.2019 09:00:00 11,3 7,4 13 7 18 10 ZO 1003,8 10
25.04.2019 08:00:00 11,0 7,2 13 7 - - ZZO 1003,2 10
25.04.2019 07:00:00 10,9 6,9 13 7 22 12 ZZO 1003,0 10
25.04.2019 06:00:00 9,5 7,7 13 7 18 10 ZO 1002,8 10
25.04.2019 05:00:00 8,6 7,6 11 6 - - ZO 1002,7 10
25.04.2019 04:00:00 8,4 7,6 13 7 18 10 OZO 1002,9 10
25.04.2019 03:00:00 8,4 7,5 11 6 18 10 ZO 1003,3 40
25.04.2019 02:00:00 9,7 8,1 9 5 - - ZO 1003,1 10
25.04.2019 01:00:00 10,3 9,2 13 7 25 14 ZZO 1003,2 10
25.04.2019 00:00:00 11,1 9,7 16 9 25 14 ZZO 1003,1 10
24.04.2019 23:00:00 11,6 10,2 16 9 - - ZZO 1002,7 10
24.04.2019 22:00:00 11,9 10,6 21 11 32 18 ZZO 1002,8 9
24.04.2019 21:00:00 12,3 10,4 18 10 32 18 ZO 1002,1 10
24.04.2019 20:00:00 13,4 11,0 16 9 - - ZO 1000,9 10
24.04.2019 19:00:00 15,0 11,6 15 8 43 23 Z 1000,0 7
24.04.2019 18:00:00 18,1 10,2 16 9 36 19 Z 999,3 10
24.04.2019 17:00:00 18,0 13,1 24 13 - - ZZW 999,0 10
24.04.2019 16:00:00 23,6 7,1 26 14 47 25 Z 997,7 10
24.04.2019 15:00:00 23,0 7,3 24 13 54 29 Z 997,7 10
24.04.2019 14:00:00 23,1 6,8 34 18 - - Z 997,9 10
24.04.2019 13:00:00 21,8 9,1 26 14 47 25 ZZW 997,9 10
24.04.2019 12:00:00 21,4 9,5 28 15 43 23 Z 998,0 10
24.04.2019 11:00:00 20,1 9,8 22 12 - - ZZO 997,6 10
24.04.2019 10:00:00 18,7 10,2 22 12 36 19 Z 997,7 10
24.04.2019 09:00:00 16,3 10,7 16 9 22 12 ZZO 997,3 10
24.04.2019 08:00:00 11,8 10,2 8 4 - - OZO 997,1 10
24.04.2019 07:00:00 10,1 8,8 8 4 11 6 ZO 997,0 10
24.04.2019 06:00:00 10,5 9,2 5 3 14 8 ZO 996,9 10
24.04.2019 05:00:00 12,9 9,6 9 5 - - ZZO 996,8 10
24.04.2019 04:00:00 13,3 9,6 9 5 14 8 ZZO 996,6 10
24.04.2019 03:00:00 14,8 9,2 11 6 14 8 ZZO 996,5 10
24.04.2019 02:00:00 13,2 8,4 11 6 - - ZZO 996,3 10
24.04.2019 01:00:00 14,2 9,2 9 5 14 8 ZO 996,4 10
24.04.2019 00:00:00 15,8 8,7 9 5 14 8 ZZO 996,2 10
23.04.2019 23:00:00 13,9 8,7 8 4 - - OZO 996,1 10
23.04.2019 22:00:00 16,0 8,4 8 4 11 6 O 996,1 10
23.04.2019 21:00:00 16,3 8,6 9 5 18 10 O 995,9 10
23.04.2019 20:00:00 18,1 8,5 13 7 - - OZO 995,7 10
23.04.2019 19:00:00 20,4 7,4 18 10 29 16 O 995,7 10
23.04.2019 18:00:00 20,6 7,7 22 12 32 18 OZO 995,8 10
23.04.2019 17:00:00 20,5 7,2 18 10 - - O 996,2 10
23.04.2019 16:00:00 21,4 6,1 24 13 40 21 O 996,4 10
23.04.2019 15:00:00 20,1 5,9 24 13 36 19 O 997,0 10
23.04.2019 14:00:00 19,9 5,9 22 12 - - O 997,2 10
23.04.2019 13:00:00 18,6 7,0 18 10 32 18 O 997,8 10
23.04.2019 12:00:00 16,0 5,6 18 10 29 16 O 998,5 10
23.04.2019 11:00:00 13,9 4,4 18 10 - - O 999,0 10
23.04.2019 10:00:00 13,0 3,9 15 8 25 14 O 999,1 10
23.04.2019 09:00:00 11,7 3,8 15 8 22 12 O 999,6 10
23.04.2019 08:00:00 11,2 3,1 13 7 - - O 999,9 10
23.04.2019 07:00:00 10,9 2,2 11 6 18 10 O 1000,2 10
23.04.2019 06:00:00 10,9 2,1 11 6 18 10 O 1000,4 10
23.04.2019 05:00:00 12,2 2,4 11 6 - - ONO 1000,8 10
23.04.2019 04:00:00 12,9 2,7 11 6 25 14 ONO 1001,5 10
23.04.2019 03:00:00 13,6 2,5 13 7 25 14 O 1001,8 10
23.04.2019 02:00:00 14,8 3,7 13 7 - - O 1002,1 10
23.04.2019 01:00:00 15,9 3,7 16 9 25 14 O 1002,4 10
23.04.2019 00:00:00 16,9 3,6 15 8 22 12 O 1002,7 10
22.04.2019 23:00:00 18,4 4,1 13 7 - - O 1003,0 10
22.04.2019 22:00:00 19,0 2,8 11 6 18 10 ONO 1003,3 10
22.04.2019 21:00:00 18,4 3,5 9 5 18 10 O 1003,2 10
22.04.2019 20:00:00 21,0 3,8 13 7 - - O 1003,2 10
22.04.2019 19:00:00 23,3 2,5 18 10 32 18 O 1003,5 10
22.04.2019 18:00:00 24,2 4,6 15 8 32 18 O 1004,0 10
22.04.2019 17:00:00 24,6 4,7 18 10 - - O 1004,4 10
22.04.2019 16:00:00 24,8 3,6 16 9 32 18 OZO 1005,5 10
22.04.2019 15:00:00 24,9 2,9 15 8 32 18 OZO 1006,1 10
22.04.2019 14:00:00 24,4 2,0 21 11 - - OZO 1006,9 10
22.04.2019 13:00:00 23,7 4,1 22 12 36 19 ZO 1007,8 10
22.04.2019 12:00:00 21,9 5,2 16 9 25 14 OZO 1008,7 10
22.04.2019 11:00:00 19,9 7,6 11 6 - - O 1009,3 10
22.04.2019 10:00:00 15,8 6,2 11 6 14 8 O 1009,8 10
22.04.2019 09:00:00 12,9 8,2 8 4 11 6 OZO 1010,3 10
22.04.2019 08:00:00 10,2 4,4 4 2 - - O 1010,6 10
22.04.2019 07:00:00 8,8 3,5 5 3 7 4 ONO 1010,6 10
22.04.2019 06:00:00 7,4 2,8 4 2 4 2 ONO 1011,1 10
22.04.2019 05:00:00 8,9 3,4 2 1 - - NO 1011,8 10
22.04.2019 04:00:00 12,0 2,1 5 3 7 4 ONO 1012,3 10
22.04.2019 03:00:00 10,0 2,6 2 1 7 4 NO 1012,9 10
22.04.2019 02:00:00 11,3 3,6 5 3 - - O 1013,7 10
22.04.2019 01:00:00 13,5 3,7 5 3 11 6 ONO 1014,2 10
22.04.2019 00:00:00 15,4 2,9 8 4 11 6 ONO 1014,5 10
21.04.2019 23:00:00 16,1 3,2 8 4 - - ONO 1015,0 10
21.04.2019 22:00:00 17,0 2,8 8 4 11 6 ONO 1015,2 10
21.04.2019 21:00:00 19,5 3,8 8 4 11 6 ONO 1015,0 10
21.04.2019 20:00:00 21,0 4,6 8 4 - - O 1015,2 10
21.04.2019 19:00:00 22,8 6,4 9 5 18 10 O 1015,7 10
21.04.2019 18:00:00 23,9 4,0 11 6 22 12 O 1016,4 10
21.04.2019 17:00:00 23,8 4,3 8 4 - - NO 1017,2 10
21.04.2019 16:00:00 23,8 4,7 9 5 22 12 - 1017,8 10
21.04.2019 15:00:00 24,0 3,5 11 6 22 12 OZO 1018,8 10
21.04.2019 14:00:00 23,0 5,9 13 7 - - O 1019,6 10
21.04.2019 13:00:00 21,0 7,2 9 5 18 10 NO 1020,4 10
21.04.2019 12:00:00 19,1 6,2 8 4 18 10 ONO 1021,3 10
21.04.2019 11:00:00 17,8 6,1 8 4 - - O 1022,0 10
21.04.2019 10:00:00 15,2 4,8 5 3 11 6 NO 1022,4 10
21.04.2019 09:00:00 12,6 3,7 8 4 14 8 ONO 1022,7 10
21.04.2019 08:00:00 10,7 3,1 4 2 - - - 1023,0 10
21.04.2019 07:00:00 9,8 2,7 5 3 7 4 NNO 1023,1 10
21.04.2019 06:00:00 10,3 1,4 5 3 11 6 NO 1023,3 10
21.04.2019 05:00:00 11,3 2,3 8 4 - - NO 1023,9 10
21.04.2019 04:00:00 12,5 2,6 5 3 14 8 NO 1024,5 10
21.04.2019 03:00:00 13,2 3,2 9 5 14 8 NO 1024,9 10
21.04.2019 02:00:00 14,1 4,2 7 4 - - NO 1025,4 30
21.04.2019 01:00:00 15,3 3,5 8 4 14 8 ONO 1025,8 10
21.04.2019 00:00:00 16,3 3,7 8 4 14 8 NO 1026,1 10
20.04.2019 23:00:00 17,3 4,2 9 5 - - NO 1026,0 10
20.04.2019 22:00:00 18,3 3,8 8 4 18 10 N 1026,0 10
20.04.2019 21:00:00 20,5 2,2 11 6 25 14 NNO 1025,7 10
20.04.2019 20:00:00 21,9 3,2 15 8 - - NO 1025,7 10
20.04.2019 19:00:00 23,4 3,9 18 10 29 16 NNO 1025,9 10
20.04.2019 18:00:00 24,4 5,1 13 7 29 16 NO 1026,2 10
20.04.2019 17:00:00 24,7 4,4 13 7 - - NNO 1026,6 10
20.04.2019 16:00:00 24,6 5,1 11 6 29 16 O 1027,1 10
20.04.2019 15:00:00 24,7 5,4 11 6 25 14 ZO 1027,8 10
20.04.2019 14:00:00 24,0 3,5 9 5 - - NO 1028,4 10
20.04.2019 13:00:00 23,5 7,7 13 7 25 14 ONO 1028,7 10
20.04.2019 12:00:00 21,8 5,7 11 6 22 12 ONO 1029,1 10
20.04.2019 11:00:00 19,5 6,1 9 5 - - O 1029,5 10
20.04.2019 10:00:00 16,8 6,5 13 7 18 10 ONO 1029,7 10
20.04.2019 09:00:00 13,6 6,0 11 6 14 8 ONO 1029,6 10
20.04.2019 08:00:00 11,1 5,5 5 3 - - NNO 1029,2 10
20.04.2019 07:00:00 9,6 3,9 4 2 7 4 - 1028,8 10
20.04.2019 06:00:00 10,6 3,6 4 2 7 4 - 1028,5 10
20.04.2019 05:00:00 10,0 4,1 4 2 - - NNO 1028,6 10
20.04.2019 04:00:00 10,9 2,6 4 2 11 6 - 1028,4 10
20.04.2019 03:00:00 13,7 3,5 2 1 7 4 - 1028,3 10
20.04.2019 02:00:00 14,6 4,2 4 2 - - - 1028,5 10
20.04.2019 01:00:00 15,6 4,8 5 3 11 6 NO 1028,5 10
20.04.2019 00:00:00 16,2 4,3 8 4 14 8 NO 1028,5 10
19.04.2019 23:00:00 17,7 4,4 11 6 - - ONO 1028,2 10
19.04.2019 22:00:00 18,8 4,7 11 6 18 10 NO 1027,9 10
19.04.2019 21:00:00 19,4 4,2 13 7 18 10 NO 1027,4 10
19.04.2019 20:00:00 21,5 5,0 15 8 - - O 1026,7 10
19.04.2019 19:00:00 23,4 1,9 16 9 29 16 ONO 1026,5 10
19.04.2019 18:00:00 23,9 2,8 18 10 32 18 ONO 1026,3 10
19.04.2019 17:00:00 24,4 4,2 16 9 - - NO 1026,5 10
19.04.2019 16:00:00 23,6 3,6 11 6 29 16 O 1026,8 10

tt = temperatuur
td = dauwpunt
ff = windsnelheid
fx = windstoten
dd = windrichting
ppp = luchtdruk
vv = zicht

Weerstations in de omgeving